When you browse on this site, cookies collect data to enhance your experience and personalize the content and advertising you see.
Visit our Privacy Policy to learn more. By continuing to use the site, you agree to this use of cookies and data.
  • In United Kingdom
  • List of Countries
  • For 7 days
  • Water Temperature
  • Weather Map
  • Weather Widgets
  • user-avatar
    Login

    Hourly Weather Birmingham

    Today, 17 September, Tuesday

    Time Temperature Precipitation Wind Pressure Humidity
    00:00 +9°C° 0 mm 2 mps 755 mmHg 88%
    01:00 +9°C° 0 mm 2 mps 754 mmHg 89%
    02:00 +9°C° 0 mm 3 mps 754 mmHg 90%
    03:00 +8°C° 0 mm 3 mps 754 mmHg 91%
    04:00 +8°C° 0 mm 3 mps 755 mmHg 91%
    05:00 +8°C° 0 mm 3 mps 755 mmHg 91%
    06:00 +8°C° 0 mm 2 mps 755 mmHg 91%
    07:00 +10°C° 0 mm 3 mps 756 mmHg 84%
    08:00 +11°C° 0 mm 3 mps 756 mmHg 77%
    09:00 +13°C° 0 mm 4 mps 756 mmHg 70%
    10:00 +14°C° 0 mm 4 mps 756 mmHg 67%
    11:00 +15°C° 0 mm 4 mps 756 mmHg 64%
    12:00 +15°C° 0 mm 4 mps 756 mmHg 61%
    13:00 +17°C° 0 mm 4 mps 756 mmHg 61%
    14:00 +17°C° 0 mm 4 mps 756 mmHg 61%
    15:00 +17°C° 0 mm 4 mps 756 mmHg 61%
    16:00 +16°C° 0 mm 3 mps 756 mmHg 65%
    17:00 +14°C° 0 mm 3 mps 757 mmHg 69%
    18:00 +14°C° 0 mm 2 mps 757 mmHg 73%
    19:00 +12°C° 0 mm 3 mps 757 mmHg 75%
    20:00 +11°C° 0 mm 3 mps 758 mmHg 78%
    21:00 +10°C° 0 mm 3 mps 758 mmHg 80%
    22:00 +9°C° 0 mm 2 mps 758 mmHg 80%
    23:00 +9°C° 0 mm 2 mps 758 mmHg 80%

    Tomorrow, 18 September, Wednesday

    Time Temperature Precipitation Wind Pressure Humidity
    00:00 +9°C° 0 mm 1 mps 758 mmHg 80%
    01:00 +9°C° 0 mm 1 mps 758 mmHg 80%
    02:00 +8°C° 0 mm 1 mps 758 mmHg 80%
    03:00 +7°C° 0 mm 0 mps 758 mmHg 81%
    04:00 +7°C° 0 mm 0 mps 759 mmHg 81%
    05:00 +7°C° 0 mm 0 mps 759 mmHg 81%
    06:00 +7°C° 0 mm 0 mps 759 mmHg 81%
    07:00 +8°C° 0 mm 0 mps 759 mmHg 76%
    08:00 +10°C° 0 mm 0 mps 759 mmHg 70%
    09:00 +13°C° 0 mm 1 mps 759 mmHg 64%
    10:00 +14°C° 0 mm 1 mps 759 mmHg 61%
    11:00 +15°C° 0 mm 1 mps 759 mmHg 57%
    12:00 +18°C° 0 mm 1 mps 759 mmHg 54%
    13:00 +18°C° 0 mm 1 mps 759 mmHg 54%
    14:00 +19°C° 0 mm 1 mps 759 mmHg 53%
    15:00 +18°C° 0 mm 2 mps 759 mmHg 53%
    16:00 +17°C° 0 mm 2 mps 759 mmHg 59%
    17:00 +16°C° 0 mm 2 mps 758 mmHg 65%
    18:00 +15°C° 0 mm 2 mps 758 mmHg 71%
    19:00 +14°C° 0 mm 2 mps 759 mmHg 72%
    20:00 +13°C° 0 mm 2 mps 759 mmHg 73%
    21:00 +12°C° 0 mm 2 mps 759 mmHg 74%
    22:00 +12°C° 0 mm 2 mps 759 mmHg 77%
    23:00 +10°C° 0 mm 2 mps 759 mmHg 79%

    Day after tomorrow, 19 September, Thursday

    Time Temperature Precipitation Wind Pressure Humidity
    00:00 +11°C° 0 mm 1 mps 759 mmHg 81%
    01:00 +11°C° 0 mm 1 mps 759 mmHg 84%
    02:00 +10°C° 0 mm 1 mps 759 mmHg 86%
    03:00 +10°C° 0 mm 1 mps 759 mmHg 89%
    04:00 +10°C° 0 mm 1 mps 759 mmHg 89%
    05:00 +10°C° 0 mm 1 mps 759 mmHg 90%
    06:00 +10°C° 0 mm 1 mps 759 mmHg 91%
    07:00 +11°C° 0 mm 1 mps 760 mmHg 85%
    08:00 +13°C° 0 mm 1 mps 760 mmHg 80%
    09:00 +15°C° 0 mm 1 mps 760 mmHg 74%
    10:00 +15°C° 0 mm 0 mps 760 mmHg 70%
    11:00 +17°C° 0 mm 0 mps 760 mmHg 65%
    12:00 +18°C° 0 mm 0 mps 760 mmHg 60%
    13:00 +19°C° 0 mm 0 mps 760 mmHg 58%
    14:00 +19°C° 0 mm 0 mps 759 mmHg 57%
    15:00 +20°C° 0 mm 0 mps 759 mmHg 56%
    16:00 +18°C° 0 mm 0 mps 759 mmHg 61%
    17:00 +17°C° 0 mm 0 mps 759 mmHg 66%
    18:00 +16°C° 0 mm 0 mps 759 mmHg 71%
    19:00 +15°C° 0 mm 0 mps 759 mmHg 74%
    20:00 +14°C° 0 mm 0 mps 759 mmHg 77%
    21:00 +14°C° 0 mm 0 mps 759 mmHg 80%
    22:00 +14°C° 0 mm 1 mps 759 mmHg 81%
    23:00 +14°C° 0 mm 1 mps 758 mmHg 83%

    20 September, Friday

    Time Temperature Precipitation Wind Pressure Humidity
    00:00 +13°C° 0 mm 1 mps 758 mmHg 84%
    01:00 +13°C° 0 mm 1 mps 758 mmHg 85%
    02:00 +13°C° 0 mm 1 mps 758 mmHg 85%
    03:00 +12°C° 0 mm 1 mps 758 mmHg 86%
    04:00 +12°C° 0 mm 1 mps 757 mmHg 87%
    05:00 +12°C° 0 mm 1 mps 757 mmHg 88%
    06:00 +11°C° 0 mm 1 mps 757 mmHg 89%
    07:00 +13°C° 0 mm 2 mps 757 mmHg 84%
    08:00 +14°C° 0 mm 2 mps 757 mmHg 79%
    09:00 +16°C° 0 mm 3 mps 757 mmHg 74%
    10:00 +17°C° 0 mm 4 mps 756 mmHg 69%
    11:00 +18°C° 0 mm 4 mps 756 mmHg 63%
    12:00 +19°C° 0 mm 5 mps 755 mmHg 58%
    13:00 +20°C° 0 mm 5 mps 755 mmHg 56%
    14:00 +20°C° 0 mm 5 mps 754 mmHg 54%
    15:00 +20°C° 0 mm 5 mps 753 mmHg 52%
    16:00 +19°C° 0 mm 5 mps 753 mmHg 55%
    17:00 +16°C° 0 mm 5 mps 752 mmHg 58%
    18:00 +15°C° 0 mm 4 mps 752 mmHg 62%
    19:00 +14°C° 0 mm 5 mps 752 mmHg 64%
    20:00 +13°C° 0 mm 5 mps 751 mmHg 65%
    21:00 +12°C° 0 mm 5 mps 751 mmHg 67%
    22:00 +12°C° 0 mm 5 mps 751 mmHg 69%
    23:00 +12°C° 0 mm 5 mps 750 mmHg 70%

    21 September, Saturday

    Time Temperature Precipitation Wind Pressure Humidity
    00:00 +12°C° 0 mm 5 mps 750 mmHg 71%
    01:00 +12°C° 0 mm 4 mps 749 mmHg 70%
    02:00 +12°C° 0 mm 4 mps 749 mmHg 69%
    03:00 +11°C° 0 mm 4 mps 748 mmHg 68%
    04:00 +11°C° 0 mm 4 mps 747 mmHg 68%
    05:00 +10°C° 0 mm 4 mps 747 mmHg 68%
    06:00 +10°C° 0 mm 4 mps 746 mmHg 68%
    07:00 +11°C° 0 mm 4 mps 746 mmHg 65%
    08:00 +13°C° 0 mm 4 mps 746 mmHg 63%
    09:00 +14°C° 0 mm 5 mps 746 mmHg 61%
    10:00 +16°C° 0 mm 5 mps 745 mmHg 58%
    11:00 +17°C° 0 mm 5 mps 745 mmHg 55%
    12:00 +20°C° 0 mm 6 mps 744 mmHg 53%
    13:00 +21°C° 0.1 mm 6 mps 744 mmHg 54%
    14:00 +21°C° 0.1 mm 6 mps 743 mmHg 55%
    15:00 +22°C° 0.1 mm 6 mps 742 mmHg 57%
    16:00 +21°C° 0.1 mm 5 mps 742 mmHg 62%
    17:00 +20°C° 0.1 mm 5 mps 742 mmHg 67%
    18:00 +19°C° 0.1 mm 5 mps 741 mmHg 72%
    19:00 +19°C° 0.3 mm 5 mps 741 mmHg 76%
    20:00 +19°C° 0.3 mm 5 mps 741 mmHg 80%
    21:00 +17°C° 0.3 mm 5 mps 741 mmHg 84%
    22:00 +18°C° 0.1 mm 4 mps 741 mmHg 86%
    23:00 +18°C° 0.1 mm 4 mps 741 mmHg 88%

    22 September, Sunday

    Time Temperature Precipitation Wind Pressure Humidity
    00:00 +17°C° 0.1 mm 4 mps 740 mmHg 90%
    01:00 +17°C° 0 mm 4 mps 740 mmHg 91%
    02:00 +16°C° 0 mm 5 mps 740 mmHg 91%
    03:00 +15°C° 0 mm 5 mps 740 mmHg 92%
    04:00 +15°C° 0 mm 5 mps 741 mmHg 92%
    05:00 +15°C° 0 mm 5 mps 741 mmHg 92%
    06:00 +14°C° 0 mm 5 mps 741 mmHg 92%
    07:00 +15°C° 0 mm 5 mps 741 mmHg 87%
    08:00 +15°C° 0 mm 5 mps 742 mmHg 82%
    09:00 +16°C° 0 mm 5 mps 742 mmHg 77%
    10:00 +16°C° 0.1 mm 5 mps 742 mmHg 74%
    11:00 +17°C° 0.1 mm 6 mps 742 mmHg 71%
    12:00 +19°C° 0.1 mm 6 mps 742 mmHg 68%
    13:00 +17°C° 0.7 mm 6 mps 742 mmHg 71%
    14:00 +16°C° 0.7 mm 6 mps 742 mmHg 73%
    15:00 +16°C° 0.7 mm 6 mps 742 mmHg 76%
    16:00 +15°C° 0.1 mm 6 mps 742 mmHg 77%
    17:00 +14°C° 0.1 mm 5 mps 742 mmHg 77%
    18:00 +14°C° 0.1 mm 4 mps 743 mmHg 77%
    19:00 +13°C° 0 mm 5 mps 743 mmHg 79%
    20:00 +12°C° 0 mm 5 mps 744 mmHg 82%
    21:00 +11°C° 0 mm 6 mps 745 mmHg 84%
    22:00 +10°C° 0 mm 5 mps 745 mmHg 84%
    23:00 +10°C° 0 mm 5 mps 746 mmHg 85%
    Show more